653  
ASUS41 KRLX 210810  
RWRRLX  
WEST VIRGINIA REGIONAL WEATHER ROUNDUP  
NATIONAL WEATHER SERVICE CHARLESTON WV  
400 AM EDT SAT OCT 21 2017  
 
NOTE: "FAIR" INDICATES FEW OR NO CLOUDS BELOW 12,000 FEET WITH NO  
SIGNIFICANT WEATHER AND/OR S TO VISIBILITY
.  
 
WVZ003-210900-  
NORTHERN PANHANDLE OF WEST VIRGINIA  
 
CITY SKY/WX TMP DP RH WIND PRES REMARKS
 
WHEELING CLEAR 53 37 54 CALM 30.24F  

 
 
WVZ009-210900-  
NORTHWEST WEST VIRGINIA  
 
CITY SKY/WX TMP DP RH WIND PRES REMARKS
 
PARKERSBURG CLEAR 44 42 93 CALM 30.26S  

 
 
WVZ006-210900-  
WESTERN WEST VIRGINIA  
 
CITY SKY/WX TMP DP RH WIND PRES REMARKS
 
HUNTINGTON CLEAR 51 49 92 CALM 30.21F FOG  

 
 
WVZ015-210900-  
WEST CENTRAL WEST VIRGINIA  
 
CITY SKY/WX TMP DP RH WIND PRES REMARKS
 
CHARLESTON PTCLDY 47 45 93 CALM 30.23S  

 
 
WVZ022-031-210900-  
NORTH CENTRAL WEST VIRGINIA  
 
CITY SKY/WX TMP DP RH WIND PRES REMARKS
 
CLARKSBURG CLEAR 44 42 93 CALM 30.26S  
MORGANTOWN CLEAR 47 41 80 CALM 30.27S  

 
 
WVZ025-035-042-045-210900-  
SOUTHERN WEST VIRGINIA  
 
CITY SKY/WX TMP DP RH WIND PRES REMARKS
 
BECKLEY CLEAR 56 44 64 SE7 30.28S  
LOGAN N/A 54 50 87 CALM 30.24S  
BLUEFIELD CLEAR 54 42 64 SE6 30.30S  
LEWISBURG CLEAR 43 40 90 CALM 30.31S  

 
 
WVZ047-210900-  
NORTHERN MOUNTAINS OF WEST VIRGINIA  
 
CITY SKY/WX TMP DP RH WIND PRES REMARKS
 
ELKINS PTCLDY 38 36 92 CALM 30.31R FOG  

 
 
WVZ052-210900-  
EASTERN PANHANDLE OF WEST VIRGINIA  
 
CITY SKY/WX TMP DP RH WIND PRES REMARKS
 
MARTINSBURG CLEAR 42 40 92 CALM 30.27S  
PETERSBURG CLEAR 41 40 97 CALM 30.30F  

 
 
 
CLICK HERE TO GO TO PREVIOUS BULLETINS.

The Nexlab WV Page
The Nexlab OH Page
The Nexlab KY Page
The Nexlab VA Page Main Text Page